Wind_Gust
10 10 12 15 4 7 6 10 11 11 6 2 3 3 7 8 16 6 5 11 4 6 10 15 9 9 12 15 5 12 12 11 9 15 16 16 16 23 18 21 19 18 20 12 14 14 11 8 6 6 6 7 8 9 11 10 11 12 13 13 11 13 13 13 12 12 14 13 13 12 11 10 8 10 8 8 7 7 6 6 7 6 7 6 6 5
5 10 17 8 10 10 10 9 5 4 1 5 5 4 11 6 15 9 8 7 7 8 10 6 4 10 15 12 5 9 14 19 17 18 19 19 18 22 24 21 18 14 6 8 10 11 10 8 7 8 7 9 11 10 12 12 11 10 11 12 12 13 12 12 11 12 12 10 13 13 11 9 8 9 10 8 7 8 7 6 7 6 6 6 5 6
6 19 5 11 12 7 5 7 5 6 3 2 6 4 7 13 10 14 10 5 4 8 14 8 4 15 11 12 11 12 23 24 24 27 25 24 19 19 23 19 15 16 12 12 13 11 12 10 7 8 7 7 7 7 11 10 11 10 10 11 11 12 12 11 12 12 12 9 10 10 11 11 10 5 5 6 5 6 7 6 6 6 6 6 5 6
10 13 12 9 6 5 3 5 6 3 2 4 3 4 14 7 7 17 8 3 2 6 11 5 8 15 12 9 8 7 7 12 17 22 24 28 30 26 26 26 25 23 17 18 16 17 14 10 8 9 9 10 8 9 9 10 12 11 11 9 11 13 12 12 11 12 11 10 8 7 9 7 7 9 8 6 6 7 8 6 5 4 6 5 6 5
18 4 2 7 7 9 8 5 5 4 9 4 6 8 7 6 10 15 14 8 7 8 3 5 8 11 9 10 16 14 10 7 7 7 11 15 21 21 14 14 18 24 20 17 16 14 13 11 10 9 9 10 11 10 10 11 12 12 12 10 12 13 12 11 13 14 13 12 11 12 10 10 12 9 8 9 6 6 6 8 6 6 5 6 6 5
15 12 7 8 3 5 7 5 7 9 9 7 10 14 12 13 12 11 7 8 15 14 4 3 14 10 7 5 13 17 11 6 6 15 19 22 19 14 19 20 13 13 12 16 17 16 11 8 8 8 12 12 12 10 7 10 11 12 12 11 12 13 12 13 14 15 14 14 15 14 12 10 8 11 11 10 11 9 8 8 3 5 5 6 5 5
16 5 13 10 8 6 6 9 7 11 11 5 16 15 19 17 12 7 8 2 6 11 6 2 4 21 6 9 11 11 7 6 5 13 17 15 16 17 17 16 16 16 14 10 7 6 9 9 9 9 11 11 13 9 5 10 13 13 12 12 13 14 14 15 14 13 14 13 12 14 15 11 11 12 5 3 5 9 6 8 6 5 4 4 7 3
8 6 7 5 8 9 6 7 12 18 12 13 11 15 10 8 7 12 9 9 15 8 9 4 9 13 14 6 7 7 5 7 10 14 19 19 13 12 10 11 12 13 10 8 8 9 8 8 10 11 9 10 11 8 6 10 17 15 14 14 14 14 14 14 14 14 14 15 13 13 11 11 10 9 10 8 7 7 8 9 7 7 5 4 3 6
8 8 8 7 4 6 14 14 5 12 17 18 5 15 13 15 14 7 6 8 6 2 21 10 2 5 10 7 4 4 5 8 15 17 18 16 12 10 9 9 9 7 6 7 8 10 9 9 8 7 8 9 10 8 8 12 16 17 16 15 13 13 14 14 17 16 12 11 13 13 14 11 7 9 9 8 8 9 9 10 6 7 5 5 5 3
8 10 15 15 14 14 13 7 16 19 13 16 7 4 4 4 3 5 8 5 4 4 14 16 5 9 13 7 3 5 7 12 14 16 15 10 11 11 9 7 6 6 7 7 6 6 7 7 7 7 7 9 8 6 10 12 15 16 16 15 12 13 13 15 14 13 10 9 13 14 12 13 11 11 9 8 9 8 7 10 6 6 7 6 7 5
5 5 11 14 16 17 9 9 16 19 22 5 11 5 3 9 4 5 8 7 4 7 17 13 2 5 9 9 12 11 11 6 6 11 13 11 10 10 7 7 6 7 9 8 7 5 5 7 9 9 8 9 8 8 14 12 16 14 13 14 13 11 11 11 12 14 14 10 11 13 14 15 14 12 13 12 9 9 8 10 6 7 7 6 6 4
4 3 5 11 9 9 6 6 8 19 10 5 6 6 4 4 10 5 6 7 10 14 13 5 4 4 9 6 6 8 5 8 10 16 18 20 17 11 5 6 7 9 10 9 9 7 9 11 10 8 9 10 9 9 15 12 16 12 10 12 12 10 9 9 8 10 11 12 10 11 12 13 14 14 14 13 13 11 11 11 10 6 8 6 5 4
9 12 8 9 8 13 9 7 8 3 5 8 6 7 7 8 7 8 6 10 12 17 4 3 3 4 6 7 4 10 12 9 11 17 15 12 9 6 10 11 9 10 17 8 8 7 9 10 11 10 9 12 8 12 9 16 14 11 11 11 12 10 9 10 10 7 7 9 10 12 12 11 11 11 11 11 10 8 12 11 11 9 9 6 7 5
14 6 4 10 7 11 9 11 7 3 6 10 12 12 10 8 6 7 9 7 12 12 7 2 4 7 7 8 4 12 14 13 13 13 7 9 9 10 11 12 13 14 11 10 7 7 8 8 8 8 9 11 8 10 9 8 12 12 10 10 11 10 9 9 9 9 8 7 8 10 13 12 12 11 11 11 12 8 11 12 12 11 11 10 9 8
5 10 13 8 10 7 14 20 21 13 15 19 9 22 17 18 17 10 10 12 14 12 6 6 6 10 3 8 11 10 11 9 5 6 9 10 7 6 9 11 13 5 9 7 5 5 8 7 6 7 8 9 8 7 9 8 8 10 12 10 11 11 10 8 7 8 11 10 9 10 12 13 12 13 12 11 12 13 12 9 12 10 8 9 7 9
9 14 14 10 3 4 10 7 6 7 6 4 6 11 13 14 14 10 12 6 5 6 5 8 8 2 6 2 6 5 8 12 9 9 10 13 13 14 15 13 12 8 7 7 6 3 7 8 7 8 8 8 9 7 7 12 7 7 13 11 12 12 10 9 8 8 12 11 10 9 12 12 12 11 10 10 8 9 11 12 13 11 9 8 9 6
4 10 6 11 3 7 8 6 6 14 15 10 9 14 14 6 17 13 3 3 5 8 6 4 8 9 12 4 9 9 12 11 11 11 12 13 15 14 14 13 12 11 10 11 8 3 9 8 9 8 9 9 9 9 8 9 13 7 11 11 15 15 9 7 8 10 10 11 11 10 11 11 12 13 14 14 11 11 7 9 10 11 8 6 7 8
12 12 6 5 7 5 2 2 2 3 11 16 9 14 5 5 10 14 12 7 7 8 13 3 4 10 8 10 8 10 11 12 12 11 10 11 10 11 10 13 16 14 14 13 8 12 12 9 11 13 9 7 7 12 11 9 11 13 11 15 18 16 16 11 7 9 8 9 9 9 10 9 13 14 12 13 13 9 10 5 7 7 9 7 6 8
6 12 11 4 6 11 9 5 6 2 2 10 11 12 13 9 6 7 14 5 6 8 7 4 2 7 8 5 10 10 13 11 10 8 10 11 12 12 10 13 14 14 13 13 13 9 11 13 14 14 14 11 5 10 15 15 11 16 18 17 18 19 21 20 14 10 9 7 6 9 12 12 9 9 11 9 10 10 11 10 8 8 8 6 5 9
5 10 15 5 3 5 6 10 7 8 7 5 7 8 3 12 6 11 15 11 14 7 5 8 5 10 8 6 6 11 10 9 7 11 13 14 12 12 10 8 13 13 13 10 12 15 14 11 15 15 10 12 12 8 11 13 12 16 21 20 19 16 12 10 11 12 12 10 12 10 9 9 11 12 12 12 13 11 10 10 9 9 7 7 6 6
9 3 9 9 7 3 7 9 4 6 7 4 6 5 4 6 6 12 5 5 9 15 11 12 8 14 7 6 4 9 9 5 7 9 8 9 9 10 12 8 9 9 10 12 13 13 11 8 8 8 8 11 10 10 9 13 15 16 20 21 19 15 11 9 8 11 12 12 13 13 13 12 12 12 12 11 10 11 9 8 8 9 9 8 7 8
14 7 12 10 11 4 7 4 2 2 6 8 16 14 15 13 9 5 9 5 5 11 12 12 15 12 10 5 3 5 2 4 8 10 8 7 11 11 11 7 4 6 7 10 10 12 11 10 8 8 10 12 11 8 10 14 16 18 17 14 13 10 9 11 11 12 13 11 14 14 14 12 11 13 12 13 11 11 10 10 10 10 9 9 7 8
12 10 9 4 5 3 3 5 3 3 7 4 7 5 6 6 13 10 12 8 6 5 9 8 8 7 7 4 6 4 5 3 4 7 11 9 7 9 12 8 7 5 8 9 10 11 12 11 8 9 7 6 7 8 9 10 16 18 17 15 14 18 15 11 11 10 11 12 12 12 11 11 11 13 14 14 11 10 10 9 9 9 11 9 8 5
9 10 9 5 8 9 9 7 3 7 3 6 9 7 5 6 8 12 10 12 15 6 5 5 7 8 3 8 7 7 8 7 9 8 10 11 11 12 11 11 10 9 10 10 11 14 10 8 6 8 6 7 6 7 7 7 7 10 11 13 17 16 13 9 9 9 13 14 11 10 10 11 11 13 13 13 11 11 8 10 9 8 10 10 9 10
12 6 12 6 6 12 13 14 9 7 13 9 3 7 5 4 7 5 10 4 10 9 8 14 13 8 7 6 10 10 9 10 12 11 10 12 11 12 12 11 10 8 8 9 11 12 9 8 10 9 7 6 6 7 7 7 7 6 7 9 13 10 11 11 10 7 6 9 10 10 11 9 10 11 12 12 11 11 10 9 9 8 9 9 8 7
7 7 9 8 10 10 9 9 11 6 5 10 2 9 8 7 6 5 5 6 9 4 4 10 9 5 9 10 11 11 11 12 13 14 15 14 13 11 10 11 11 12 14 13 12 12 11 9 8 8 6 7 8 9 10 10 9 10 8 10 8 11 9 9 8 8 7 10 12 10 9 8 9 12 11 12 11 12 11 10 8 8 7 9 10 6
11 5 5 9 15 16 14 9 6 3 6 4 11 8 14 4 10 6 12 10 14 8 5 7 8 14 12 12 11 12 11 11 14 15 16 14 12 13 13 13 13 13 14 14 12 13 15 15 13 12 10 9 7 8 9 8 10 12 11 13 11 10 10 7 6 7 8 9 11 12 8 7 9 10 10 10 11 11 10 10 9 9 9 7 8 9
8 9 4 11 10 3 4 3 2 4 6 4 9 12 10 12 10 5 4 9 8 19 5 5 6 17 16 14 12 14 14 15 14 14 14 13 13 12 12 14 15 16 14 15 17 17 15 13 14 14 12 11 11 10 9 9 11 11 11 12 10 9 7 6 8 9 9 9 12 13 12 11 7 9 10 9 8 9 9 8 8 7 6 7 8 8
8 8 2 7 4 4 4 3 6 8 6 7 7 9 14 14 12 6 3 4 3 8 16 10 10 13 15 12 13 12 12 16 16 15 13 13 14 15 13 17 18 16 16 17 16 16 17 17 15 14 13 13 12 12 13 13 12 11 11 11 9 8 7 7 8 9 8 8 9 9 14 12 9 9 9 10 8 6 5 7 6 6 7 8 7 8
12 5 2 7 10 9 7 7 5 13 5 6 10 10 10 13 11 10 6 3 4 6 9 19 14 11 10 9 13 14 12 15 16 14 16 17 16 16 16 17 17 17 18 18 18 17 15 18 17 16 15 15 13 12 13 12 11 10 11 10 9 8 8 9 9 7 8 9 7 5 4 11 14 13 11 11 12 8 5 6 6 8 8 7 8 7
8 6 5 3 8 6 6 5 8 8 8 12 8 14 15 12 11 13 7 8 16 16 15 17 16 11 10 10 15 14 12 14 19 20 17 15 16 17 15 15 17 18 18 17 18 17 16 17 20 20 21 19 17 15 12 11 11 12 14 12 11 9 8 9 10 8 9 12 10 9 9 9 8 7 12 10 10 5 5 4 3 5 6 7 6 6
9 4 7 4 10 3 5 7 4 5 10 12 9 19 16 13 10 9 7 8 8 13 13 15 12 10 11 11 16 14 15 20 20 17 18 17 17 19 17 15 16 18 17 17 17 16 19 21 21 21 20 18 19 20 18 16 15 15 14 13 12 11 10 11 11 11 10 10 10 11 10 8 9 9 8 7 5 7 8 7 7 3 2 4 5 4
5 13 7 5 10 4 3 3 4 2 7 4 7 7 8 3 2 3 3 6 6 7 23 15 7 10 13 12 20 16 18 18 19 17 17 18 17 17 16 15 15 17 17 16 18 19 17 17 18 19 18 18 21 22 19 18 20 18 16 18 14 15 14 13 11 11 11 10 10 10 8 8 7 7 8 8 7 7 4 4 6 5 7 4 2 4
4 10 6 2 9 4 4 7 4 6 7 8 4 5 4 3 4 11 8 9 10 11 7 9 17 15 12 10 18 17 18 18 18 16 14 15 16 17 16 16 14 13 15 16 17 17 16 16 18 20 20 19 18 19 19 21 20 17 16 16 17 19 17 18 17 16 14 13 10 9 8 8 8 9 8 8 8 6 6 5 4 5 5 3 2 1
6 8 5 3 11 9 3 5 8 6 5 2 3 5 4 8 14 17 13 15 11 15 20 19 16 16 14 14 16 21 22 20 19 20 19 16 15 15 13 13 14 14 15 14 17 16 16 17 19 19 22 19 16 17 21 22 18 17 20 20 21 19 19 19 20 18 16 16 14 11 9 9 8 8 7 8 8 5 4 4 4 4 3 2 2 3
10 10 9 9 7 8 5 4 10 5 2 4 3 5 5 4 4 4 16 16 15 10 17 21 18 18 19 19 17 17 22 20 21 21 19 17 15 14 12 15 13 14 15 15 18 18 18 17 17 17 17 15 19 21 21 18 15 21 19 19 20 19 19 20 21 19 19 19 17 15 12 9 8 8 8 7 7 9 7 7 6 3 2 2 4 3
14 9 9 8 4 11 7 4 6 3 5 3 3 7 11 5 6 4 10 8 11 9 9 22 19 19 21 19 18 16 16 20 22 18 16 15 15 14 14 13 12 12 14 15 16 16 13 14 17 15 16 18 19 21 21 17 18 19 20 22 19 20 20 22 22 20 19 18 17 17 16 14 13 12 11 10 9 8 7 7 8 8 6 4 3 3
4 11 7 10 6 7 10 8 5 3 8 5 3 4 3 3 2 5 3 8 7 9 9 18 20 18 18 17 17 14 7 23 19 13 12 12 12 13 12 13 11 11 12 13 14 15 16 15 16 18 19 18 20 17 15 19 22 21 23 21 19 21 21 22 20 17 18 18 17 17 17 16 16 15 14 14 14 11 9 6 3 3 3 3 4 5
14 14 11 11 8 6 6 10 8 7 5 1 8 9 6 3 5 4 5 9 4 5 8 14 21 18 18 20 15 5 13 14 10 8 6 9 11 11 14 13 12 13 13 14 14 16 16 18 16 15 17 20 20 17 16 19 24 23 22 19 18 19 21 19 16 16 15 14 13 13 13 14 15 14 14 15 14 13 13 12 9 6 4 4 3 2
18 12 9 13 8 5 8 8 6 3 6 5 10 10 11 5 1 2 8 10 3 3 10 12 17 18 15 9 6 5 14 21 16 13 8 7 9 9 11 12 12 13 12 13 13 13 14 12 18 21 19 17 13 11 13 16 20 19 19 18 17 21 19 15 12 10 10 11 13 13 15 14 15 14 14 13 12 13 13 12 12 13 8 5 3 3
13 11 14 7 5 8 8 5 7 4 3 4 12 15 12 5 3 6 11 9 3 4 11 9 11 9 7 6 4 10 9 15 19 16 12 9 12 12 11 11 10 10 12 13 12 10 16 17 18 18 15 13 11 11 11 14 19 18 16 16 20 19 14 10 10 12 12 12 14 15 15 14 13 14 13 11 9 8 11 12 12 11 12 11 10 9
9 5 4 7 11 5 2 9 5 3 3 9 15 11 8 5 7 8 3 3 6 7 12 9 9 8 11 10 14 18 21 20 18 14 13 11 12 9 10 10 12 13 11 10 11 12 15 17 17 16 16 14 14 12 13 15 19 16 15 17 17 12 10 10 11 12 13 15 15 15 16 16 15 13 12 11 12 14 13 10 10 11 10 10 11 11
7 9 4 5 3 5 9 7 6 7 6 12 19 6 7 4 3 4 4 6 5 13 15 11 9 10 17 17 15 20 21 18 15 13 12 11 13 12 11 11 13 13 12 13 15 13 15 17 17 16 13 13 13 12 12 16 17 15 15 18 12 9 9 9 10 11 12 13 14 14 14 14 15 15 14 14 13 11 11 10 11 11 11 11 10 10
4 9 4 4 4 6 8 6 5 7 14 18 5 5 7 7 4 2 6 12 10 13 16 14 10 9 17 22 19 17 14 15 11 10 11 10 10 9 9 9 9 11 12 11 10 9 14 16 14 15 12 12 12 13 12 15 16 15 16 13 9 9 9 10 10 12 14 14 13 13 13 13 14 14 13 14 13 12 12 12 10 8 11 10 9 9
15 9 3 10 8 7 6 6 7 6 8 11 14 14 10 9 9 12 17 14 15 14 11 19 13 11 15 20 19 17 16 10 10 7 12 8 9 9 10 8 9 10 10 10 9 9 11 14 13 13 13 12 11 11 12 11 15 14 13 9 8 9 10 10 12 13 14 13 13 14 12 12 12 12 13 13 13 15 15 13 12 11 10 9 10 9
2 3 2 14 15 15 19 12 8 9 11 12 11 10 12 12 11 15 20 23 16 14 14 17 12 13 14 13 21 15 14 10 13 11 11 10 10 7 8 10 9 8 8 9 9 9 9 10 11 11 11 11 10 11 10 11 12 13 6 7 9 9 9 11 12 13 12 12 12 12 12 12 13 13 14 13 12 11 9 10 12 12 12 11 10 9
7 4 7 14 7 6 12 8 11 10 9 12 12 12 13 13 13 14 19 18 15 17 21 18 18 16 15 15 16 15 11 10 12 9 8 9 9 8 9 10 8 6 8 9 4 6 9 9 11 9 9 10 7 8 9 9 10 7 6 9 8 9 10 11 12 11 12 12 12 11 12 12 12 12 12 13 13 12 10 10 12 12 12 10 11 11
6 4 16 7 6 9 11 6 8 8 10 10 9 13 14 14 15 14 15 15 16 17 17 17 17 18 14 14 11 13 10 8 12 10 9 10 10 10 9 10 9 8 5 4 4 6 7 8 8 7 7 8 5 6 7 9 9 8 8 9 9 8 10 10 9 10 10 10 9 10 11 11 9 11 12 12 11 12 13 11 9 10 8 9 10 11
5 6 6 2 14 13 10 5 8 12 13 10 8 6 8 12 15 14 14 15 14 16 14 12 10 8 9 10 10 11 10 4 5 9 11 8 9 9 9 9 7 8 6 5 3 4 9 6 7 6 6 5 4 5 7 7 7 7 8 6 6 6 8 8 7 9 9 10 10 11 9 9 9 10 10 10 11 10 5 5 11 11 12 4 2 6
8 12 4 12 15 7 8 11 10 15 11 5 6 5 6 5 11 12 10 12 13 14 13 13 7 5 6 5 11 12 13 9 6 7 10 8 9 9 8 8 6 7 6 5 5 5 5 5 6 6 6 4 3 5 6 6 5 5 5 5 5 5 6 4 5 7 8 8 9 10 11 11 11 10 10 11 12 13 13 6 5 4 6 12 9 9
6 9 9 8 13 9 7 3 2 10 9 3 5 3 4 5 10 12 10 9 6 6 10 13 11 7 6 5 2 11 12 12 9 8 10 7 6 5 7 8 9 6 4 3 6 5 6 3 4 6 6 4 4 5 4 4 3 4 5 4 4 4 5 4 5 5 7 7 7 7 6 7 9 9 9 9 10 10 12 16 18 10 6 6 10 11
Wind_Speed
4 4 5 8 3 4 4 7 8 7 4 1 1 1 4 5 7 1 3 7 2 1 6 9 6 5 8 10 4 8 8 7 5 10 9 10 9 11 10 12 11 11 13 7 8 8 5 4 3 4 4 5 5 6 7 6 7 8 7 8 8 8 8 7 7 6 7 8 7 6 6 6 5 5 5 5 4 4 4 4 4 4 4 4 4 4
3 5 9 5 7 7 7 6 3 3 0 2 2 3 7 3 8 2 4 4 2 3 5 4 2 6 9 7 3 4 6 12 10 11 12 13 11 13 15 14 11 8 3 4 6 6 4 4 4 5 4 5 7 6 8 7 6 7 7 7 7 7 7 7 6 6 6 5 6 6 5 4 4 5 5 5 4 4 4 4 4 4 4 4 4 3
2 8 3 7 8 4 3 5 4 4 2 1 3 2 4 6 5 8 6 3 1 5 8 3 2 7 7 8 6 2 11 11 14 16 16 14 12 11 13 12 9 9 8 6 6 6 5 4 5 5 4 4 4 5 7 6 6 6 7 7 7 7 7 6 7 7 6 5 5 5 5 6 4 2 2 3 3 4 4 4 4 4 4 4 4 4
4 6 8 5 4 4 1 3 4 2 1 3 1 1 7 3 3 7 4 2 1 1 5 2 5 8 8 5 5 2 4 6 5 12 15 17 18 16 17 16 14 14 11 12 11 10 9 4 5 5 5 5 4 4 6 6 7 5 6 6 7 8 7 6 7 7 7 6 4 4 6 4 3 5 4 3 3 3 4 4 3 3 4 4 4 4
8 3 1 4 5 6 5 3 4 2 5 2 4 4 2 1 5 8 6 3 4 4 1 3 4 5 4 5 7 7 6 4 3 4 7 10 12 13 8 8 11 15 13 11 10 9 8 6 5 5 5 6 5 5 5 5 7 5 7 6 8 8 7 6 8 9 8 7 6 6 6 6 7 5 5 5 4 4 3 4 3 3 3 3 4 3
9 7 3 5 2 2 4 2 4 5 5 3 6 9 7 8 8 7 3 4 6 6 1 2 4 3 4 4 5 8 6 1 1 8 12 14 12 9 12 13 8 7 8 10 11 9 5 5 4 5 7 7 5 4 3 5 5 7 7 7 8 8 7 8 9 10 8 8 9 8 7 6 4 5 5 5 6 5 5 4 2 3 3 4 3 3
6 2 7 6 5 4 4 4 4 6 6 1 6 10 12 10 7 5 4 1 2 2 1 1 1 6 3 4 7 6 5 4 3 7 11 10 9 9 9 9 9 10 8 5 4 4 6 5 5 5 7 6 7 4 2 6 7 9 8 8 9 8 8 9 9 9 8 8 7 9 9 7 6 6 1 2 2 5 4 4 4 3 3 2 4 2
2 3 5 3 5 5 3 4 5 11 6 3 6 10 7 5 5 7 3 4 6 3 2 2 4 4 4 1 4 4 3 4 6 9 11 10 8 8 6 7 6 8 6 5 5 6 6 5 6 6 6 6 5 4 3 5 10 10 9 9 9 8 8 7 8 8 7 8 7 8 7 7 6 6 5 5 4 4 5 6 4 4 3 2 2 4
5 4 5 4 2 3 7 7 3 8 7 7 2 10 9 10 9 3 4 4 2 1 10 2 0 1 3 2 3 1 2 4 9 10 11 11 7 5 4 5 5 5 4 5 5 6 5 5 5 5 5 6 6 5 5 5 10 10 10 9 8 8 9 8 10 8 6 7 7 7 8 7 4 6 5 4 4 5 5 6 4 5 3 3 3 2
2 6 10 10 8 7 6 4 10 12 4 7 5 1 2 3 1 3 4 3 1 1 7 8 1 2 5 3 1 3 4 6 7 7 8 6 6 5 4 4 3 4 5 4 3 2 3 3 5 5 5 6 5 4 4 6 9 10 9 8 8 9 8 9 8 7 7 6 8 8 7 9 7 6 5 5 5 5 5 6 4 4 4 4 4 3
2 3 7 6 7 8 5 5 9 12 11 3 7 3 1 5 2 2 4 3 2 2 8 4 0 3 2 4 5 4 4 3 4 4 6 6 4 4 3 4 3 4 5 5 4 3 3 5 6 6 5 6 5 4 7 6 9 7 7 9 9 7 7 8 7 8 8 6 7 7 9 10 9 8 8 7 5 5 5 6 4 5 4 4 4 3
1 1 1 3 4 2 3 1 4 9 4 2 0 2 2 1 5 2 2 3 2 5 7 2 1 2 3 2 4 4 4 5 5 8 9 9 7 1 1 3 3 3 3 3 2 3 5 7 7 5 6 7 6 3 10 4 8 6 6 8 8 6 6 6 5 5 7 6 6 8 8 8 9 9 8 8 8 6 7 6 6 4 5 4 3 3
4 5 3 6 3 10 2 3 4 0 2 4 3 3 3 2 2 1 2 2 4 6 1 1 3 2 2 2 3 6 7 6 7 8 8 7 5 5 7 8 6 5 6 5 5 2 3 5 6 6 6 8 4 5 6 7 6 7 7 7 8 6 5 6 7 5 4 6 7 7 8 7 7 7 7 7 6 5 7 6 6 5 5 4 4 3
6 2 1 5 3 5 5 4 2 0 3 6 6 5 5 1 1 1 3 1 5 5 4 0 0 1 2 3 1 7 8 8 8 8 3 2 4 7 7 6 4 6 6 3 1 1 0 3 5 5 6 7 2 7 2 6 8 5 6 6 7 7 6 6 6 6 6 5 5 7 8 8 7 7 7 7 7 5 6 7 7 7 6 6 5 5
0 2 5 4 2 1 6 10 12 6 8 9 2 11 8 8 5 3 3 3 6 6 2 2 2 2 2 3 7 6 6 5 3 3 6 7 5 4 3 6 7 3 2 3 3 3 1 3 4 4 5 6 5 5 3 2 4 6 7 6 7 7 6 5 5 6 7 6 6 6 7 8 7 7 7 7 7 7 7 6 7 6 5 6 5 5
6 4 7 6 1 2 5 3 3 4 4 1 2 5 7 5 6 4 4 3 1 0 1 2 1 0 1 1 4 3 5 8 6 6 7 9 8 9 8 6 7 6 4 4 4 1 3 3 4 5 5 5 6 5 5 7 4 3 7 6 6 7 6 5 5 6 8 7 6 6 7 6 7 6 6 6 5 6 7 7 7 7 5 5 5 4
1 2 3 7 2 4 5 3 2 8 3 3 4 5 6 2 9 6 1 2 3 4 0 0 4 3 5 1 4 5 7 7 7 7 7 9 10 9 7 6 5 7 6 6 5 2 6 4 5 4 6 6 6 5 3 6 7 3 6 6 8 7 3 4 6 6 6 6 6 5 6 7 6 8 9 8 7 7 4 5 6 6 5 4 4 5
4 5 3 2 4 1 0 2 1 1 5 6 2 7 1 3 5 5 3 2 3 3 3 1 1 5 3 2 4 5 6 8 8 7 7 7 7 7 6 6 7 8 9 8 5 8 7 5 7 5 5 5 5 8 7 5 7 8 6 9 10 7 10 7 4 5 5 6 6 6 6 6 7 8 7 7 8 6 6 3 4 4 5 4 3 4
2 3 4 2 3 7 5 3 4 1 1 5 4 5 4 1 1 2 5 0 1 1 1 1 1 3 4 1 5 6 8 7 6 5 6 7 8 8 6 5 3 4 7 8 8 5 8 8 7 6 7 5 2 7 10 8 6 10 11 10 12 13 11 9 7 6 5 5 4 5 7 8 6 5 6 5 6 6 7 6 5 5 5 4 3 5
2 2 5 2 2 3 3 3 2 2 2 3 4 3 1 4 2 3 4 4 5 2 1 3 2 2 3 1 2 7 6 6 4 6 7 7 7 5 5 2 2 2 4 5 7 9 8 7 10 7 5 8 4 2 7 8 7 10 12 13 12 9 5 6 7 8 8 7 7 6 5 5 6 7 7 7 8 6 6 6 6 6 5 5 4 4
2 0 2 2 3 1 1 2 1 1 4 1 2 1 1 2 2 5 1 1 3 5 4 2 1 4 2 3 1 5 5 3 3 4 4 5 2 4 6 3 2 4 6 7 7 7 8 5 5 4 4 5 5 4 5 8 9 9 8 8 4 9 6 5 6 7 8 8 8 9 8 7 7 7 6 7 6 7 6 5 5 6 6 5 4 5
3 1 5 3 4 1 2 2 1 1 3 3 7 6 7 7 4 3 3 1 2 4 3 4 5 4 5 2 0 3 1 1 2 6 5 4 5 6 6 5 3 4 3 4 5 6 5 6 5 4 5 6 6 4 7 7 10 11 11 8 5 5 6 8 7 7 8 7 8 10 9 8 6 8 7 8 7 7 7 6 6 6 5 6 5 5
4 3 3 1 1 1 1 2 1 2 4 2 3 1 4 2 6 4 3 3 2 1 4 3 2 1 2 1 2 1 2 1 1 2 7 5 4 5 6 5 4 3 3 4 6 6 7 8 5 3 3 3 4 4 5 6 8 9 9 7 8 9 6 6 5 6 7 7 7 8 7 7 7 8 9 9 7 7 6 6 6 5 7 5 5 3
4 2 3 1 4 5 5 4 1 3 2 3 4 4 3 1 3 6 3 5 6 3 1 1 0 1 1 4 2 3 4 4 5 5 7 7 6 7 7 6 7 6 5 5 6 8 6 5 4 3 3 4 4 4 4 4 5 6 5 4 4 5 6 6 6 6 8 8 7 7 7 7 7 9 9 9 7 7 6 6 6 5 6 6 5 6
1 1 5 2 2 5 5 6 3 3 6 4 1 4 1 2 3 3 5 1 3 5 4 7 5 2 3 4 5 5 5 6 7 7 7 7 6 6 7 7 6 5 5 5 7 8 6 4 6 4 3 3 3 4 3 4 4 3 5 5 7 4 3 4 4 3 2 4 7 7 7 6 7 7 8 8 7 7 6 6 6 5 6 6 5 4
1 2 2 2 4 4 2 1 3 1 1 3 1 5 5 5 3 1 2 1 3 1 3 2 2 2 5 6 6 6 7 8 8 9 9 9 7 5 6 5 6 7 8 8 8 8 7 6 5 5 4 4 5 5 5 4 5 6 4 4 4 6 4 4 4 4 4 4 6 6 6 6 5 6 7 8 7 8 7 6 6 5 4 6 6 4
2 2 2 3 7 8 7 3 1 1 2 3 6 5 8 2 3 2 4 5 6 3 2 3 4 8 7 8 7 8 7 7 9 10 9 8 7 8 8 7 7 8 9 8 8 8 9 9 9 8 6 5 5 4 4 5 5 6 6 4 6 6 6 5 4 3 4 4 4 6 5 4 3 5 5 6 7 7 6 7 6 6 6 5 5 6
3 4 2 6 6 1 2 1 0 2 3 1 4 6 5 7 6 2 2 3 3 10 2 1 4 10 9 9 7 9 9 9 8 8 8 7 8 7 7 7 10 10 9 9 11 11 9 8 9 9 8 7 6 6 5 5 6 7 5 5 6 5 5 4 5 5 6 6 6 5 7 7 3 1 2 3 4 6 6 5 5 5 4 4 5 5
3 3 1 3 3 3 3 1 4 5 4 4 4 5 8 7 8 4 1 2 1 3 8 5 7 8 8 6 8 7 7 10 10 9 9 8 9 10 9 10 11 10 10 11 10 10 11 11 9 9 8 7 7 8 8 7 7 7 8 7 6 5 5 5 5 5 4 5 6 6 8 6 5 4 3 3 5 4 3 4 3 4 4 4 4 5
4 2 0 3 5 5 4 4 2 9 3 4 6 6 5 7 7 6 3 2 1 2 5 12 9 7 5 4 8 9 7 9 9 8 9 10 10 10 10 11 10 10 11 11 11 10 9 11 10 9 10 10 9 8 8 7 7 6 7 7 5 5 5 6 6 4 4 5 4 4 2 6 9 6 5 4 2 2 2 3 3 4 4 4 4 4
3 0 1 1 4 3 4 3 4 4 5 4 5 8 8 6 7 9 4 5 8 9 8 11 11 7 5 5 10 8 7 8 10 13 11 9 8 10 9 7 8 10 10 10 10 10 10 11 13 13 14 13 11 10 8 7 7 6 8 7 6 6 5 6 6 5 6 6 6 5 6 6 5 3 7 6 6 4 1 3 2 2 3 3 4 3
4 0 3 1 4 2 3 4 2 4 7 8 6 10 9 7 6 5 4 4 3 6 7 9 7 4 6 6 9 9 9 12 12 11 12 10 9 10 11 8 6 8 10 10 10 10 12 13 14 14 13 12 13 13 11 10 9 9 9 8 7 6 6 7 7 7 7 6 6 6 6 5 5 5 5 4 2 3 5 4 4 2 1 3 3 2
1 5 2 2 4 1 2 2 2 1 4 3 5 4 5 1 0 0 1 3 3 1 11 8 2 4 8 7 12 10 12 12 12 10 10 11 11 11 10 10 8 8 9 10 11 12 11 10 10 11 12 11 12 13 12 11 12 11 10 11 9 8 8 8 7 7 7 6 7 6 5 4 5 5 5 5 4 4 3 3 4 4 4 3 1 2
2 6 3 1 2 1 2 4 2 3 2 1 2 2 2 1 1 7 3 4 5 6 2 4 9 9 6 6 11 11 12 11 11 10 8 8 9 11 10 10 9 8 8 8 10 11 11 9 10 11 13 12 11 11 11 12 12 10 10 10 10 11 10 11 10 10 9 8 6 5 5 5 6 5 5 5 5 3 3 3 3 4 3 2 2 0
3 4 2 1 3 2 1 3 3 2 0 1 2 2 1 2 9 11 9 9 7 8 13 12 10 10 9 9 10 13 14 13 12 13 12 10 9 9 9 8 8 8 9 8 10 10 11 11 12 12 14 12 10 10 12 13 11 10 12 12 13 11 12 11 12 11 10 9 8 7 6 6 5 5 5 3 1 2 2 2 2 2 1 1 0 1
5 5 3 3 2 2 1 1 3 1 1 2 1 3 3 2 3 2 10 10 9 6 9 13 12 12 12 12 10 10 14 13 13 12 12 11 10 9 7 9 8 8 9 9 10 11 11 11 10 11 11 8 11 12 12 11 9 12 11 11 12 11 12 12 13 12 11 12 10 9 7 6 5 5 4 4 4 5 4 4 3 2 1 1 2 2
8 5 4 3 1 3 2 3 2 1 2 2 2 4 4 2 3 1 4 3 6 5 4 12 12 12 12 11 11 10 9 12 13 10 10 9 9 9 9 8 8 8 7 9 10 10 8 9 11 10 10 11 11 12 12 10 11 11 12 13 11 12 12 13 13 12 12 11 10 10 10 9 8 8 7 6 6 5 4 4 5 4 3 2 1 0
2 4 3 4 0 3 4 4 2 1 1 2 2 2 1 2 1 2 1 3 4 5 5 11 11 12 12 10 9 7 5 13 9 6 7 7 7 8 8 8 7 7 7 8 8 9 9 9 10 11 12 12 13 11 9 11 13 13 14 13 11 13 13 13 12 10 11 11 10 10 10 10 10 9 8 9 8 7 6 4 1 2 2 2 3 3
8 6 6 5 3 3 2 4 1 1 1 0 5 6 4 2 2 0 1 4 2 2 4 9 13 11 11 11 8 2 8 6 4 3 2 5 7 7 9 8 8 8 8 8 8 10 10 11 10 10 11 12 13 10 9 12 15 14 13 12 11 12 13 11 10 9 9 9 8 8 8 8 9 9 9 9 9 8 8 6 5 4 3 3 2 1
9 6 5 6 4 2 3 3 2 1 1 2 6 6 7 3 0 1 2 3 0 1 6 7 10 10 8 4 3 3 7 10 7 5 1 4 6 6 7 7 8 9 8 7 7 8 9 8 12 14 13 12 8 7 9 10 12 12 11 9 9 12 11 9 7 6 6 7 8 8 9 8 9 9 9 8 7 8 8 7 7 7 5 4 2 2
6 5 6 4 2 4 5 1 2 1 0 2 7 10 8 3 0 2 4 4 1 2 7 5 7 6 4 3 1 5 4 8 10 9 7 6 8 8 7 7 7 6 7 7 6 5 8 8 10 10 8 5 5 6 6 8 11 11 9 9 11 11 8 6 5 6 7 7 8 9 9 8 8 9 8 7 5 5 7 7 7 7 7 7 6 5
4 2 1 3 6 3 1 4 1 1 1 5 9 6 5 1 2 4 1 1 2 4 7 5 6 5 7 6 8 10 11 12 11 9 8 8 8 6 6 7 7 7 6 6 7 7 9 10 10 10 10 8 7 7 7 9 11 10 9 10 11 7 5 5 5 6 7 8 8 8 8 8 7 6 6 6 7 7 7 5 5 5 5 6 6 7
3 3 1 2 1 1 3 3 3 1 1 7 13 3 4 0 0 1 1 3 1 7 9 6 5 6 11 10 10 13 13 10 9 8 8 8 8 8 7 6 7 7 6 7 8 6 8 10 10 10 8 7 7 7 7 10 11 9 9 10 7 5 5 6 6 7 7 8 9 8 8 7 8 7 6 6 6 6 7 6 6 6 5 5 5 6
1 2 0 1 1 2 3 2 0 2 7 11 3 2 3 3 2 1 1 5 5 6 9 8 6 5 10 14 12 11 9 9 7 7 7 7 7 6 6 6 6 7 7 6 5 5 8 10 9 9 8 8 7 7 6 8 10 9 10 8 5 5 5 5 6 6 7 8 8 8 8 8 8 8 8 8 7 7 7 7 6 5 6 6 5 5
7 3 0 4 3 2 2 2 4 4 4 6 8 7 5 6 6 6 10 8 8 7 6 10 8 6 9 13 12 11 10 6 5 4 7 5 5 5 6 5 6 7 6 7 6 6 7 9 8 8 9 7 8 7 7 7 9 9 8 5 5 6 6 6 7 8 8 8 8 8 6 6 7 7 8 8 8 8 8 8 7 6 6 6 6 5
1 1 2 5 6 8 10 6 3 5 6 7 7 6 8 7 7 9 12 12 9 8 8 9 7 8 8 8 12 9 8 7 7 6 6 5 6 5 5 6 6 5 5 6 6 6 6 7 7 8 7 7 7 7 6 7 7 8 4 4 4 5 5 6 8 8 7 6 7 7 7 7 7 7 8 8 7 6 6 6 7 7 7 6 6 6
4 1 3 5 2 1 5 5 6 5 6 8 8 8 8 8 7 8 11 10 9 10 13 11 11 10 10 10 10 9 7 7 8 5 5 5 5 5 5 6 4 4 5 6 3 4 6 6 7 6 6 6 5 5 5 6 6 4 4 6 5 5 6 7 6 6 7 6 5 5 5 6 5 5 6 6 6 5 5 5 6 6 6 6 6 7
2 2 7 4 4 4 4 3 3 5 7 6 6 8 9 9 9 9 9 9 10 10 11 11 11 12 9 9 7 8 6 5 8 6 4 4 4 4 5 5 6 5 4 3 3 4 5 5 5 4 4 4 3 4 5 6 6 5 5 6 6 5 6 6 6 6 6 7 6 6 6 6 7 7 5 6 6 5 6 5 4 5 5 5 6 6
2 3 1 1 5 6 5 2 5 8 8 6 4 3 4 7 8 8 8 9 9 10 9 8 7 6 7 7 6 7 6 3 3 5 6 4 4 4 4 4 3 4 3 3 1 2 5 4 5 4 4 3 2 3 5 4 4 5 5 4 4 4 5 5 5 5 6 6 6 6 5 5 6 6 6 6 6 6 3 3 6 6 7 2 0 4
3 5 1 6 7 2 3 5 6 5 4 2 3 3 3 2 6 7 6 7 8 9 9 9 5 4 4 4 7 8 8 6 4 4 6 5 5 6 5 4 4 4 3 2 3 3 4 3 4 4 4 3 2 3 4 4 3 3 3 3 3 3 3 3 3 5 5 5 6 6 6 6 6 6 6 6 7 7 7 5 4 3 4 7 6 6
2 4 3 3 6 3 3 2 1 5 5 2 3 1 3 3 5 7 5 5 3 3 4 8 8 4 4 2 1 7 8 7 6 5 6 4 4 4 4 6 6 4 4 2 4 4 4 3 3 4 4 2 2 3 3 3 3 3 3 3 3 3 3 3 3 4 4 4 5 4 4 5 6 6 6 6 6 6 7 9 9 7 5 4 8 9
Wind_Direction
134 158 185 211 170 186 214 182 192 199 168 81 127 168 230 244 271 266 232 251 170 331 252 251 248 238 266 260 245 204 196 217 145 163 156 158 167 173 183 189 188 185 191 205 190 195 178 142 110 101 102 115 118 132 147 157 148 150 149 136 129 126 126 126 124 125 123 120 115 111 117 125 124 132 124 127 130 136 139 137 140 144 147 143 135 125
96 174 233 192 180 170 198 192 129 103 111 208 260 251 279 223 272 267 276 255 198 170 282 243 264 271 257 286 245 210 188 206 181 175 170 169 174 183 188 190 185 174 158 170 199 212 178 143 125 114 118 138 150 152 154 164 157 150 145 137 124 124 125 128 127 123 119 124 132 135 141 134 133 139 142 137 143 147 143 144 146 144 135 130 131 123
177 212 215 179 198 164 95 108 146 170 181 103 203 246 280 276 248 273 251 274 265 136 250 307 311 278 305 293 329 232 202 208 191 179 174 170 178 188 194 190 170 161 179 182 210 216 208 155 132 126 127 144 152 154 160 158 152 146 143 132 124 123 125 126 126 121 118 116 125 139 140 144 121 78 118 126 138 143 132 135 132 128 124 128 123 129
277 275 214 204 133 138 85 104 118 85 77 165 179 233 253 239 356 305 293 344 349 161 284 316 326 294 316 308 319 285 260 277 246 194 177 178 182 186 192 186 180 178 175 182 191 202 207 174 150 146 145 154 156 159 158 157 158 149 140 125 118 120 121 124 126 118 115 118 114 92 110 103 113 143 128 98 113 102 109 124 129 120 129 130 134 138
211 203 129 135 149 156 198 170 136 160 254 269 191 204 236 273 224 195 257 338 299 296 195 284 319 321 341 356 339 325 304 254 245 194 200 203 202 197 186 186 192 184 174 174 181 202 196 175 163 162 144 148 165 163 165 164 156 148 139 122 117 119 125 128 127 124 123 115 101 106 90 90 86 80 102 112 83 111 125 116 125 142 125 132 136 142
260 248 114 102 120 153 182 208 209 159 231 290 225 199 208 228 244 248 292 9 11 326 312 127 20 306 311 330 345 320 329 269 256 189 198 196 192 184 190 194 182 185 184 186 192 197 163 147 147 153 151 156 169 164 153 156 142 137 132 121 115 120 130 134 134 134 139 143 140 129 120 122 120 132 141 143 151 144 141 152 125 94 117 134 134 149
222 176 163 177 152 161 165 197 234 154 205 189 272 193 214 223 230 254 262 81 300 252 285 32 148 269 327 8 335 324 317 283 318 221 208 200 196 197 197 186 181 176 171 177 183 149 157 159 162 154 157 157 171 164 170 149 136 129 129 125 128 139 143 143 141 143 143 140 142 145 146 145 150 143 141 89 115 129 111 106 101 101 93 122 136 137
111 162 164 137 145 151 143 244 231 166 145 236 230 177 195 211 222 235 219 176 237 276 281 56 125 216 301 291 310 309 296 263 241 224 211 209 204 203 192 174 178 173 177 174 170 166 159 158 168 160 143 139 159 147 193 156 135 134 141 141 146 142 138 137 136 150 139 132 140 138 135 136 145 145 147 141 129 111 118 104 103 103 87 76 109 136
148 176 160 154 147 132 198 208 162 150 146 220 205 160 179 192 206 187 152 199 229 26 288 335 30 89 252 260 279 31 292 263 236 220 216 213 212 198 173 149 165 154 145 158 167 173 169 148 129 121 126 130 160 152 196 159 136 145 157 149 134 131 134 137 153 156 129 139 140 136 126 116 102 108 113 115 109 111 109 103 94 98 99 85 71 90
269 164 195 162 152 207 224 201 165 168 194 271 149 150 90 92 87 154 152 155 280 101 270 281 174 210 282 289 292 5 295 252 234 232 226 220 210 189 161 147 133 116 129 136 137 137 127 122 108 111 105 132 146 166 163 147 140 152 156 129 122 129 133 146 160 143 136 135 134 126 125 122 116 110 98 98 107 115 116 112 109 107 93 84 72 56
215 316 150 121 188 210 189 208 170 188 198 110 112 128 58 44 34 50 83 97 79 293 257 255 162 168 300 258 194 158 222 248 280 268 241 232 207 183 156 151 132 145 146 149 145 140 125 110 116 113 135 135 141 182 148 151 149 153 135 125 121 122 118 138 152 149 142 145 133 126 127 132 133 133 128 122 121 127 118 115 108 103 91 68 72 72
3 17 153 243 187 160 147 186 229 206 199 204 87 133 52 325 15 38 350 42 168 266 261 268 194 147 167 311 337 250 272 262 243 239 236 227 214 155 61 38 64 90 99 98 110 102 125 129 118 122 146 135 156 172 142 162 140 133 111 120 124 118 121 114 114 118 132 144 127 129 136 136 141 142 141 143 150 150 134 129 119 112 100 86 68 76
278 224 236 285 229 183 183 204 312 268 212 134 86 61 144 261 43 282 18 224 204 199 239 49 120 67 191 211 258 295 280 271 238 238 227 211 178 106 67 50 33 51 55 49 30 31 121 134 140 158 154 137 177 146 143 147 136 125 113 127 130 131 108 100 114 134 132 139 138 142 139 139 141 137 136 138 136 143 133 132 126 130 131 123 113 135
273 282 299 257 316 208 158 193 249 21 183 131 156 164 110 156 104 255 273 211 314 284 251 349 76 187 257 295 257 293 293 282 261 242 206 144 105 101 120 97 50 347 10 28 40 323 315 111 120 131 136 140 167 123 104 126 144 138 120 126 128 133 121 115 113 127 128 133 146 145 142 146 142 138 139 140 137 145 142 146 146 152 158 167 168 160
240 347 278 155 252 211 166 192 199 180 162 194 125 158 178 145 159 215 204 211 217 201 272 278 115 216 125 260 329 309 308 337 357 82 92 85 81 74 56 97 75 52 78 83 47 13 68 63 85 87 114 120 120 104 140 103 85 144 141 137 124 123 115 108 120 129 136 146 153 153 148 148 144 142 141 144 144 147 148 154 146 156 159 159 167 157
195 201 259 223 169 132 176 246 113 91 87 199 165 53 94 210 144 194 205 166 240 163 30 357 192 167 171 288 308 325 12 19 19 44 69 70 77 77 72 71 97 106 91 86 71 88 88 86 66 76 103 103 115 121 148 173 99 138 145 143 119 121 127 135 144 145 147 155 152 149 145 142 133 126 122 123 135 146 154 157 153 159 165 162 142 149
40 300 261 310 152 199 215 157 208 149 197 223 106 180 211 159 110 81 65 39 101 57 239 303 325 313 305 12 24 12 36 13 24 41 56 74 78 74 64 56 91 128 125 128 117 30 103 123 102 72 86 103 116 118 106 154 140 112 128 116 83 86 125 173 162 153 144 138 138 140 133 129 133 142 148 153 158 156 157 152 153 152 158 141 138 138
143 239 295 96 270 280 188 181 126 78 146 92 166 231 162 125 119 126 193 345 63 169 249 46 235 299 35 217 340 19 28 23 19 29 50 59 68 71 64 61 71 93 104 99 110 143 137 136 136 117 84 86 120 138 130 146 147 114 67 79 108 154 178 188 151 124 114 127 131 132 132 143 155 157 153 150 150 147 135 127 121 112 128 153 142 125
131 299 299 250 256 278 347 125 37 359 2 147 200 169 109 227 223 329 92 221 101 255 259 338 215 249 170 277 351 353 2 358 4 13 39 47 59 61 63 60 67 106 116 119 112 110 123 137 120 122 153 138 117 166 147 143 133 118 118 149 172 182 191 166 153 120 100 103 121 144 154 155 158 151 144 139 135 140 141 146 148 147 135 117 118 115
46 167 291 292 165 315 10 61 213 280 341 31 93 83 337 103 157 124 199 169 122 215 72 283 44 242 223 193 305 306 332 320 10 29 33 43 53 71 68 17 335 336 41 70 74 63 49 69 109 133 145 139 149 156 150 140 126 133 156 178 184 184 162 144 135 129 128 137 142 152 149 158 155 152 146 147 144 145 151 150 144 133 132 141 118 119
150 114 217 279 313 41 141 359 221 157 139 74 70 305 47 30 215 101 47 77 165 166 174 163 316 279 264 227 269 304 297 311 68 74 49 43 28 82 77 79 340 17 56 75 86 101 105 96 79 52 78 121 149 145 117 123 127 148 171 198 167 157 152 122 124 134 147 148 153 149 159 161 156 149 139 137 147 145 148 148 146 144 141 124 134 137
94 119 194 313 1 335 232 257 224 202 196 180 166 197 169 120 126 151 247 19 77 104 199 126 234 267 266 262 167 289 331 95 119 102 76 47 28 49 57 43 35 65 57 92 80 68 64 75 58 83 144 150 162 140 134 136 142 163 179 181 151 116 138 147 147 153 153 156 156 156 161 161 151 143 144 147 154 150 153 156 151 145 140 147 160 147
149 153 98 97 209 211 244 249 175 148 128 165 138 189 139 127 103 105 161 237 42 36 112 151 116 280 253 177 158 199 86 70 25 92 101 77 43 51 57 58 51 43 58 62 78 68 64 62 67 80 83 81 105 126 135 146 157 173 178 167 162 165 155 136 141 144 148 155 156 148 143 140 146 148 154 154 157 155 155 153 147 152 146 149 153 156
85 73 78 313 316 299 309 283 18 47 80 37 19 42 29 333 177 163 167 179 140 162 96 24 108 234 287 118 137 105 91 51 38 45 81 82 79 80 87 79 76 72 62 76 78 81 57 62 89 89 76 75 84 94 97 104 160 166 166 154 141 148 136 142 155 162 163 156 137 124 127 137 147 152 154 154 152 151 157 152 152 151 149 153 153 152
95 297 115 86 8 338 342 346 5 339 52 78 12 320 346 330 45 135 104 63 97 209 170 128 213 264 158 131 119 120 104 80 65 54 59 72 63 58 54 38 40 54 72 67 81 90 111 119 113 115 102 92 81 77 68 83 62 42 71 118 141 163 145 131 127 123 70 116 122 124 127 137 148 151 151 150 151 152 150 152 148 151 150 146 154 148
93 187 120 130 146 161 197 263 253 273 264 280 23 354 11 40 357 12 139 87 136 246 128 134 206 257 132 143 132 128 112 79 69 61 56 51 55 58 66 51 36 36 53 52 54 58 58 63 78 85 99 103 95 85 81 77 91 90 65 46 77 111 110 110 117 124 143 145 120 118 127 135 143 154 156 154 153 151 152 151 151 149 154 157 151 146
115 68 53 150 159 186 200 206 260 99 21 47 313 23 344 348 346 120 94 102 196 185 156 232 161 151 146 142 135 128 115 94 73 61 54 50 37 51 65 65 70 61 52 51 55 54 48 38 37 43 60 78 82 81 68 61 59 74 77 77 85 97 111 118 112 100 77 56 86 107 91 71 108 157 160 158 150 142 144 154 155 154 165 164 153 152
65 58 11 89 65 158 184 194 215 126 113 110 39 341 342 360 346 70 121 225 165 111 257 245 198 141 146 141 139 110 87 79 73 65 57 47 48 51 64 72 70 63 58 51 46 45 44 39 34 32 30 53 64 70 71 60 55 59 65 72 70 74 87 91 107 109 110 118 113 113 126 133 111 50 86 102 123 135 139 141 151 155 147 143 151 160
120 117 287 83 35 32 34 77 113 84 77 109 86 36 16 344 23 49 209 188 96 128 193 169 134 126 132 107 89 76 94 92 78 72 66 64 54 41 33 59 61 55 51 49 45 43 44 44 37 30 28 32 50 60 59 54 55 54 51 44 47 56 48 45 77 97 109 123 135 150 144 118 109 113 109 125 119 107 124 128 128 132 151 167 167 175
92 27 188 111 97 46 32 41 72 111 127 60 40 33 20 30 24 35 22 327 122 130 139 128 113 81 68 91 94 91 82 87 85 78 72 60 63 62 44 22 41 46 46 45 42 37 42 45 43 42 40 34 30 44 61 65 62 65 71 60 54 48 34 49 52 56 85 82 74 60 54 136 146 147 144 162 132 52 79 98 125 146 163 181 187 178
95 264 123 352 70 14 358 10 57 108 123 89 34 31 27 21 47 27 46 37 62 72 88 106 103 85 56 89 97 85 82 85 69 66 61 62 65 78 69 34 32 47 48 47 41 38 42 50 48 45 43 36 32 29 34 43 53 57 68 64 59 49 38 58 62 54 47 45 39 49 57 47 44 101 144 159 142 133 105 89 105 153 179 178 174 164
70 126 37 54 83 4 347 358 8 88 93 98 52 20 14 22 47 351 15 332 311 140 107 100 101 108 125 101 89 82 80 76 78 70 68 63 58 62 74 59 38 54 54 53 46 42 45 51 50 49 44 39 39 39 34 36 43 43 50 55 57 60 57 58 62 59 55 55 51 54 53 54 72 56 39 42 65 130 140 115 86 74 99 170 169 149
70 121 90 46 70 44 300 329 334 5 62 51 20 320 313 263 220 70 301 330 300 217 134 159 113 87 118 125 95 76 83 81 76 68 75 68 58 52 47 59 51 51 58 54 52 47 42 45 46 49 48 46 43 44 37 44 47 39 41 48 41 52 53 56 56 60 59 62 66 62 63 58 54 48 47 47 38 19 33 57 68 64 48 12 339 131
38 95 101 91 108 198 308 323 332 59 145 234 326 241 220 356 36 83 32 7 30 59 0 74 118 120 106 103 104 108 83 74 76 67 55 75 81 64 45 23 22 40 44 48 57 52 42 41 49 49 48 48 47 49 47 47 53 49 50 56 53 55 53 55 47 44 39 40 48 68 70 64 59 55 50 55 41 32 47 47 60 63 59 40 0 73
96 91 84 91 100 154 292 4 53 116 256 338 300 8 206 118 85 83 57 34 38 91 97 90 99 95 84 81 90 98 91 80 72 69 58 51 67 79 77 53 13 17 40 41 52 49 49 47 48 47 48 37 38 44 51 49 41 52 50 51 56 51 57 55 56 49 45 43 31 30 50 60 53 56 53 60 147 98 66 79 86 75 88 126 114 83
152 122 158 54 102 65 47 19 116 237 303 326 33 23 354 9 358 44 56 18 13 19 101 97 95 91 93 93 87 90 95 91 72 56 58 54 53 66 65 70 43 21 39 45 61 60 57 50 46 44 43 28 41 48 48 49 45 57 56 53 57 54 52 53 52 46 44 43 35 33 28 39 56 63 56 31 22 32 16 7 26 44 359 133 119 112
136 112 105 96 336 136 141 80 88 143 111 49 358 14 12 335 339 12 95 9 10 15 91 112 106 103 100 100 103 101 103 88 68 40 27 57 66 60 64 67 65 50 44 48 50 55 53 56 57 50 52 46 38 43 42 40 44 50 53 53 47 55 51 51 48 40 42 42 37 37 36 38 44 38 27 22 26 17 9 3 1 8 13 21 27 70
15 138 189 109 281 105 132 87 68 19 152 94 300 278 268 238 236 229 104 79 19 62 94 110 116 119 116 118 119 129 112 71 52 32 14 34 42 67 63 64 58 57 52 56 53 55 54 53 54 48 50 48 44 38 38 48 51 48 48 45 42 48 49 49 44 37 39 38 31 34 38 41 46 45 40 37 26 11 359 356 24 37 46 44 17 10
30 60 98 101 127 66 72 112 127 159 75 18 321 326 326 277 229 189 58 66 344 100 105 120 124 129 132 134 140 83 75 72 76 31 28 69 78 76 79 71 68 61 51 45 53 59 52 49 52 54 51 47 43 25 32 49 56 52 48 43 41 48 48 44 39 36 40 36 32 33 35 39 46 46 45 41 28 22 17 8 1 348 26 64 73 39
41 8 33 57 53 52 130 90 143 341 176 324 326 324 320 330 115 59 105 199 146 148 127 129 126 133 131 117 114 71 110 129 143 150 150 76 74 71 78 79 73 77 73 72 58 61 65 56 51 47 43 37 24 23 36 54 62 60 56 47 44 48 45 37 31 27 40 43 41 38 35 32 38 41 42 39 35 31 30 17 24 14 14 33 46 96
359 1 41 97 115 55 77 71 62 14 44 344 331 321 318 266 138 123 208 193 184 155 133 133 124 110 96 75 36 95 25 108 129 133 121 102 87 71 67 73 74 73 77 70 68 77 82 73 75 73 68 53 38 37 45 62 68 64 60 54 50 42 32 23 26 32 36 40 45 43 38 33 33 34 33 32 34 42 39 32 31 26 32 26 18 32
19 58 358 54 36 50 59 102 163 177 297 342 324 316 283 10 142 220 228 207 256 147 117 113 90 75 80 79 95 93 102 104 108 109 109 105 102 102 96 94 85 71 58 58 60 63 66 64 59 59 52 43 44 47 52 60 63 57 52 53 47 30 16 29 34 40 40 40 42 43 40 36 32 37 34 23 26 35 38 25 38 45 41 39 40 36
318 73 345 53 318 37 28 64 43 35 208 12 322 328 19 76 276 197 291 19 91 111 102 83 94 108 105 88 89 105 106 103 104 104 100 101 99 94 90 85 80 76 67 64 61 53 76 72 63 57 50 36 37 40 50 66 65 57 50 50 26 6 15 24 30 37 41 39 38 33 31 30 31 31 29 30 31 37 29 10 21 24 34 44 50 54
346 91 24 356 188 102 39 54 177 282 306 315 300 101 339 20 37 353 38 75 39 84 96 85 62 101 112 114 111 98 94 96 83 89 88 87 94 95 88 83 80 81 75 63 67 62 74 76 67 61 44 36 32 32 31 61 68 57 53 35 357 5 19 30 35 42 43 39 35 31 28 24 24 25 23 20 21 30 28 18 6 12 19 10 33 44
337 76 61 114 344 66 80 69 21 357 340 4 50 69 56 38 61 78 75 63 70 38 72 88 83 80 100 108 103 105 99 85 98 101 104 107 95 91 88 83 89 94 91 82 68 61 63 72 68 62 48 32 30 26 31 34 66 60 49 9 2 14 20 26 34 39 36 33 29 27 23 27 28 25 23 17 16 19 14 8 11 12 6 11 16 15
275 108 85 75 80 92 65 53 65 39 38 39 39 50 65 61 57 70 75 77 55 62 53 79 78 86 83 88 103 93 99 114 103 92 90 91 93 83 89 85 79 82 81 79 71 65 76 75 68 65 60 34 24 30 31 34 47 58 14 351 10 15 24 35 39 38 32 25 26 17 15 27 23 24 23 23 22 22 10 4 357 4 356 6 7 7
328 38 59 90 188 3 59 351 40 47 46 52 56 55 57 54 55 64 74 71 73 69 71 65 72 67 70 75 83 96 97 101 96 80 83 88 84 86 90 93 75 74 89 86 69 80 72 75 72 68 66 53 15 34 36 45 42 42 23 25 14 25 37 43 40 40 31 26 19 17 17 25 21 11 15 19 13 14 13 6 4 360 1 1 4 360
26 71 75 62 59 66 107 102 92 82 63 48 48 74 75 70 65 63 75 76 74 66 68 69 68 69 67 69 73 88 90 99 112 122 122 114 109 99 93 94 99 81 53 71 79 85 83 84 91 82 72 59 23 35 47 46 37 23 23 19 16 23 39 38 36 36 27 20 18 20 18 19 15 17 10 10 13 15 359 2 4 356 359 345 345 354
261 19 66 322 92 85 95 87 111 94 74 66 66 52 84 108 108 100 93 88 81 81 80 71 71 89 92 109 105 101 89 59 111 135 123 111 107 103 105 107 99 110 110 97 78 96 110 115 98 96 91 70 42 55 57 47 32 23 24 15 14 27 45 35 25 26 22 13 16 12 7 16 12 9 6 357 358 355 340 342 344 343 326 297 340 2
52 52 37 85 94 147 177 179 172 115 115 87 88 105 92 75 102 95 95 104 119 126 124 119 96 83 110 141 149 139 139 150 147 134 128 136 139 139 134 130 139 133 114 96 83 80 82 83 102 93 83 64 60 68 64 46 29 11 7 6 11 33 60 47 39 33 16 10 12 3 3 3 2 0 359 358 353 350 341 340 335 297 297 313 326 326
116 183 128 136 149 201 236 174 126 124 96 106 150 97 104 116 107 108 111 112 80 85 118 123 119 96 87 47 59 139 141 145 150 138 119 128 143 156 153 140 127 111 104 93 88 76 89 87 92 93 88 103 99 83 75 59 15 6 354 357 357 39 53 45 51 44 19 16 7 359 354 356 355 351 348 349 352 352 349 339 338 341 324 288 310 321